Volver al catálogo

SATCOM 3 DEB

LostHEO
NORAD 29003·DEBRIS·🇺🇸 United States

Lanzado Dec 7, 1979 desde Cape Canaveral Space Force Station

Loading…

Próximos Pases (próximas 24 horas)

TLE

ObsoletoSource: Space-Track

Época: Jul 21, 2026, 14:46 UTC

1 29003U 79101F   26202.61566950 -.00000111  00000-0  00000+0 0  9995
2 29003   9.3628  39.3577 4903279 195.8470   5.3679  1.83294761 87237

Sigue SATCOM 3 DEB en tiempo real con AllMySat

Download on the App Store